Location: Cranford
(40.6578°N, 74.3024°W)
Time: 10:08:20
(UTC+00:00)

STARLINK-5186 - Visible Passes

Search period start: 05 June 2023 00:00
Search period end: 15 June 2023 00:00
Orbit: 539 x 540 km, 53.2° (Epoch: 05 June)

Date Brightness Start Highest point End Pass type
(mag) Time Alt. Az. Time Alt. Az. Time Alt. Az.
05 Jun ? 05:30:36 43° NNW 05:30:36 43° NNW 05:34:25 10° NE visible
05 Jun ? 07:08:04 10° NW 07:10:40 16° NNW 07:13:17 10° NNE visible
05 Jun ? 08:48:52 10° NNW 08:51:21 15° N 08:53:49 10° NE visible
06 Jun ? 03:46:04 11° ENE 03:46:04 11° ENE 03:46:17 10° ENE visible
06 Jun ? 05:21:27 35° NW 05:21:51 36° NNW 05:25:38 10° NE visible
06 Jun ? 06:59:42 10° NW 07:02:08 15° N 07:04:35 10° NNE visible
06 Jun ? 08:40:10 10° NNW 08:42:49 16° NNE 08:45:27 10° NE visible
07 Jun ? 03:36:44 16° ENE 03:36:44 16° ENE 03:37:43 10° ENE visible
07 Jun ? 05:12:06 26° WNW 05:13:15 30° NNW 05:16:53 10° NE visible
07 Jun ? 06:51:19 10° NW 06:53:38 14° N 06:55:57 10° NNE visible
07 Jun ? 08:31:28 10° NNW 08:34:18 18° NNE 08:37:07 10° ENE visible
08 Jun ? 03:27:07 27° ENE 03:27:07 27° ENE 03:29:07 10° NE visible
08 Jun ? 05:02:28 17° WNW 05:04:41 26° NNW 05:08:10 10° NNE visible
08 Jun ? 06:42:56 10° NW 06:45:09 14° N 06:47:23 10° NNE visible
08 Jun ? 08:22:45 10° NNW 08:25:47 19° NNE 08:28:48 10° ENE visible
09 Jun ? 03:16:50 69° ENE 03:16:50 69° ENE 03:20:30 10° NE visible
09 Jun ? 04:52:51 10° WNW 04:56:09 23° NNW 04:59:28 10° NNE visible
09 Jun ? 06:34:31 10° NNW 06:36:43 14° N 06:38:54 10° NNE visible
09 Jun ? 08:14:04 10° NNW 08:17:17 22° NNE 08:20:29 10° ENE visible
10 Jun ? 01:28:42 14° SE 01:28:57 14° SE 01:31:10 10° E visible
10 Jun ? 03:03:43 10° SW 03:07:47 79° NW 03:11:54 10° NE visible
10 Jun ? 04:44:34 10° WNW 04:47:40 20° NNW 04:50:47 10° NNE visible
10 Jun ? 06:26:04 10° NNW 06:28:17 14° N 06:30:29 10° NE visible
10 Jun ? 08:05:23 10° NNW 08:08:47 25° NNE 08:12:11 10° E visible
11 Jun ? 01:17:22 10° S 01:20:14 19° SE 01:23:07 10° E visible
11 Jun ? 02:55:11 10° WSW 02:59:13 62° NW 03:03:17 10° NE visible
11 Jun ? 04:36:18 10° WNW 04:39:13 18° NNW 04:42:08 10° NNE visible
11 Jun ? 06:17:36 10° NNW 06:19:52 14° N 06:22:08 10° NE visible
11 Jun ? 07:56:44 10° NW 08:00:18 28° NNE 08:03:53 10° E visible
12 Jun ? 01:08:15 10° S 01:11:34 24° SE 01:14:53 10° ENE visible
12 Jun ? 02:46:43 10° WSW 02:50:41 49° NW 02:54:41 10° NE visible
12 Jun ? 04:28:05 10° NW 04:30:49 17° NNW 04:33:32 10° NNE visible
12 Jun ? 06:09:06 10° NNW 06:11:29 15° N 06:13:52 10° NE visible
12 Jun ? 07:48:06 10° NW 07:51:50 33° NNE 07:55:33 10° E visible
13 Jun ? 00:59:19 10° SSW 01:02:56 31° SE 01:06:34 10° ENE visible
13 Jun ? 02:38:19 10° WSW 02:42:12 40° NNW 02:46:04 10° NE visible
13 Jun ? 04:19:52 10° NW 04:22:26 16° N 04:24:59 10° NNE visible
13 Jun ? 06:00:35 10° NNW 06:03:07 16° N 06:05:39 10° NE visible
13 Jun ? 07:39:29 10° NW 07:43:22 39° NNE 07:47:13 10° ESE visible
14 Jun ? 02:30:00 10° W 02:33:44 34° NNW 02:37:29 10° NE visible
14 Jun ? 04:11:41 10° NW 04:14:05 15° N 04:16:29 10° NNE visible
14 Jun ? 05:52:03 10° NNW 05:54:45 17° NNE 05:57:28 10° NE visible
14 Jun ? 07:30:56 10° NW 07:34:54 48° NNE 07:38:52 10° ESE visible
